Weather History for Harbor Springs, MI

Change the Weather History Date:

Tuesday, May 6, 2014

  Actual Average (KPLN) Record (KPLN)
Temperature  
Mean Temperature 46 °F -  
Max Temperature 59 °F 60 °F 86 °F (1964)
Min Temperature 32 °F 35 °F 19 °F (1968)
Degree Days  
Heating Degree Days 20    
Moisture  
Dew Point 30 °F    
Average Humidity 54    
Maximum Humidity 97    
Minimum Humidity 32    
Precipitation  
Precipitation 0.00 in - - ()
Sea Level Pressure  
Sea Level Pressure 30.10 in    
Wind  
Wind Speed 5 mph (ENE)    
Max Wind Speed 15 mph    
Max Gust Speed 20 mph    
Visibility 10 miles    
Events      
Averages and records for this station are not official NWS values.
T = Trace of Precipitation, MM = Missing Value Source: NWS Daily Summary

Daily Weather History Graph

Daily Weather History Graph

Search for Another Location

Airport:

Trip Planner

Search our weather history database for the weather conditions in past years. The results will help you decide how hot, cold, wet, or windy it might be!

Date:

Astronomy

May. 06, 2014 Rise Set
Actual Time 6:20 AM EDT 8:52 PM EDT
Civil Twilight 5:47 AM EDT 9:26 PM EDT
Nautical Twilight 5:05 AM EDT 10:08 PM EDT
Astronomical Twilight 4:18 AM EDT 10:56 PM EDT
Moon 12:39 PM EDT (5/6) 2:08 AM EDT (5/6)
Length of Visible Light 15h 38m
Length of Day
14h 31m
Waxing Crescent, 46% of the Moon is Illuminated
May 6
Waxing Crescent
May 6
First Quarter
May 14
Full
May 21
Last Quarter
May 28
New

Hourly Weather History & Observations

Time (EDT) Temp. Windchill Dew Point Humidity Pressure Visibility Wind Dir Wind Speed Gust Speed Precip Events Conditions
12:15 AM 33.1 °F - 32.2 °F 96% 30.07 in 10.0 mi Calm Calm - N/A   Clear
12:34 AM 32.9 °F - 32.0 °F 96% 30.07 in 10.0 mi Calm Calm - N/A   Clear
12:55 AM 33.1 °F - 32.0 °F 96% 30.08 in 10.0 mi Calm Calm - N/A   Clear
1:15 AM 32.9 °F - 32.2 °F 97% 30.07 in 10.0 mi Calm Calm - N/A   Clear
1:34 AM 33.1 °F - 32.0 °F 96% 30.07 in 10.0 mi Calm Calm - N/A   Clear
1:55 AM 32.5 °F - 31.6 °F 96% 30.07 in 10.0 mi Calm Calm - N/A   Clear
2:15 AM 32.7 °F - 31.6 °F 96% 30.07 in 10.0 mi Calm Calm - N/A   Clear
2:34 AM 32.9 °F - 31.3 °F 94% 30.07 in 10.0 mi Calm Calm - N/A   Clear
2:55 AM 33.3 °F - 31.3 °F 92% 30.07 in 10.0 mi Calm Calm - N/A   Clear
3:15 AM 32.4 °F - 31.6 °F 97% 30.07 in 10.0 mi Calm Calm - N/A   Clear
3:34 AM 33.1 °F - 31.5 °F 94% 30.07 in 10.0 mi Calm Calm - N/A   Clear
7:55 AM 34.9 °F - 31.8 °F 89% 30.13 in 10.0 mi Calm Calm - N/A   Clear
8:14 AM 36.9 °F - 33.1 °F 86% 30.13 in 10.0 mi Calm Calm - N/A   Clear
8:35 AM 39.0 °F - 33.1 °F 79% 30.14 in 10.0 mi Calm Calm - N/A   Clear
8:55 AM 40.3 °F 36.3 °F 34.2 °F 79% 30.14 in 10.0 mi ENE 5.8 mph - N/A   Clear
9:14 AM 42.6 °F 39.0 °F 33.3 °F 69% 30.15 in 10.0 mi East 5.8 mph - N/A   Clear
10:14 AM 46.9 °F - 33.1 °F 59% 30.14 in 10.0 mi East 9.2 mph - N/A   Clear
10:35 AM 48.2 °F - 32.0 °F 54% 30.14 in 10.0 mi ESE 10.4 mph - N/A   Clear
10:54 AM 49.5 °F - 31.8 °F 51% 30.13 in 10.0 mi East 11.5 mph - N/A   Clear
11:15 AM 50.5 °F - 31.8 °F 49% 30.14 in 10.0 mi East 11.5 mph - N/A   Clear
11:35 AM 51.8 °F - 32.0 °F 47% 30.14 in 10.0 mi East 10.4 mph - N/A   Clear
11:54 AM 52.3 °F - 32.0 °F 46% 30.14 in 10.0 mi ENE 12.7 mph 17.3 mph N/A   Clear
12:15 PM 53.1 °F - 32.0 °F 45% 30.13 in 10.0 mi East 6.9 mph - N/A   Clear
12:35 PM 53.6 °F - 32.0 °F 44% 30.13 in 10.0 mi ENE 6.9 mph - N/A   Clear
12:54 PM 55.2 °F - 32.2 °F 42% 30.13 in 10.0 mi ESE 8.1 mph - N/A   Clear
1:15 PM 55.8 °F - 31.5 °F 40% 30.12 in 10.0 mi ESE 5.8 mph - N/A   Clear
1:35 PM 56.8 °F - 31.3 °F 38% 30.11 in 10.0 mi East 6.9 mph - N/A   Clear
1:54 PM 56.8 °F - 31.1 °F 38% 30.10 in 10.0 mi ENE 10.4 mph 16.1 mph N/A   Clear
2:15 PM 57.4 °F - 30.7 °F 36% 30.10 in 10.0 mi NE 9.2 mph - N/A   Clear
2:34 PM 57.9 °F - 30.6 °F 35% 30.10 in 10.0 mi ENE 11.5 mph - N/A   Clear
2:55 PM 59.0 °F - 31.1 °F 35% 30.10 in 10.0 mi ENE 11.5 mph 17.3 mph N/A   Clear
3:15 PM 58.1 °F - 30.0 °F 34% 30.08 in 10.0 mi East 8.1 mph - N/A   Clear
3:34 PM 58.5 °F - 29.7 °F 33% 30.08 in 10.0 mi NE 11.5 mph - N/A   Clear
3:55 PM 59.2 °F - 29.8 °F 33% 30.08 in 10.0 mi East 9.2 mph - N/A   Clear
4:15 PM 59.0 °F - 29.3 °F 32% 30.08 in 10.0 mi NE 10.4 mph - N/A   Clear
4:34 PM 59.5 °F - 29.5 °F 32% 30.08 in 10.0 mi NE 11.5 mph 16.1 mph N/A   Clear
4:55 PM 59.5 °F - 29.8 °F 32% 30.08 in 10.0 mi ENE 10.4 mph 18.4 mph N/A   Clear
5:15 PM 58.8 °F - 29.5 °F 33% 30.08 in 10.0 mi ENE 11.5 mph - N/A   Clear
5:34 PM 57.4 °F - 29.1 °F 34% 30.08 in 10.0 mi ENE 11.5 mph - N/A   Clear
5:55 PM 56.3 °F - 28.9 °F 35% 30.07 in 10.0 mi ENE 10.4 mph - N/A   Scattered Clouds
6:15 PM 55.4 °F - 28.6 °F 36% 30.07 in 10.0 mi NE 15.0 mph 18.4 mph N/A   Mostly Cloudy
6:34 PM 54.5 °F - 28.4 °F 37% 30.08 in 10.0 mi ENE 13.8 mph - N/A   Mostly Cloudy
6:55 PM 53.6 °F - 27.9 °F 37% 30.08 in 10.0 mi ENE 8.1 mph - N/A   Mostly Cloudy
7:15 PM 52.5 °F - 26.8 °F 37% 30.08 in 10.0 mi ENE 12.7 mph 19.6 mph N/A   Overcast
7:34 PM 52.0 °F - 25.7 °F 36% 30.08 in 10.0 mi ENE 15.0 mph - N/A   Mostly Cloudy
7:55 PM 52.0 °F - 24.8 °F 35% 30.07 in 10.0 mi ENE 12.7 mph - N/A   Scattered Clouds
8:15 PM 51.3 °F - 24.8 °F 36% 30.09 in 10.0 mi ENE 10.4 mph - N/A   Clear
8:35 PM 50.9 °F - 25.2 °F 37% 30.09 in 10.0 mi ENE 10.4 mph - N/A   Clear
8:55 PM 49.8 °F - 26.6 °F 41% 30.09 in 10.0 mi ENE 10.4 mph - N/A   Clear
9:14 PM 49.3 °F - 27.9 °F 44% 30.09 in 10.0 mi ENE 10.4 mph - N/A   Clear
9:35 PM 49.1 °F - 28.6 °F 45% 30.09 in 10.0 mi ENE 9.2 mph - N/A   Clear
9:55 PM 49.3 °F - 28.4 °F 45% 30.09 in 10.0 mi East 8.1 mph - N/A   Clear
10:14 PM 49.3 °F - 29.3 °F 46% 30.09 in 10.0 mi East 6.9 mph - N/A   Clear
10:35 PM 48.6 °F - 29.7 °F 48% 30.09 in 10.0 mi ENE 6.9 mph - N/A   Clear
10:55 PM 48.6 °F - 29.3 °F 47% 30.10 in 10.0 mi East 6.9 mph - N/A   Clear
11:14 PM 48.2 °F - 28.9 °F 47% 30.10 in 10.0 mi East 8.1 mph - N/A   Clear
11:35 PM 47.7 °F - 28.8 °F 48% 30.10 in 10.0 mi East 6.9 mph - N/A   Clear
11:54 PM 47.3 °F - 27.7 °F 47% 30.10 in 10.0 mi East 8.1 mph - N/A   Clear